| time (UTC) | temp C | wind direction | speed KPH | gust KPH | rain 1hr cm | rain 24hr cm | rain mn cm | humidity % | barometer mb |
| 20260506165341 | 13 | 343 | 16.1 | 17.7 | 0.00 | 0.46 | 0.46 | 48 | 4267.7 |
| 20260506164837 | 12 | 277 | 6.4 | 9.7 | 0.00 | 0.46 | 0.46 | 43 | 4267.8 |
| 20260506164334 | 12 | 327 | 11.3 | 14.5 | 0.00 | 0.46 | 0.46 | 44 | 4267.7 |
| 20260506163831 | 13 | 331 | 12.9 | 16.1 | 0.00 | 0.46 | 0.46 | 47 | 4267.7 |
| 20260506163326 | 12 | 263 | 12.9 | 17.7 | 0.00 | 0.46 | 0.46 | 48 | 4267.7 |
| 20260506162822 | 12 | 271 | 14.5 | 14.5 | 0.00 | 0.46 | 0.46 | 49 | 4267.6 |
| 20260506162320 | 12 | 314 | 16.1 | 17.7 | 0.00 | 0.46 | 0.46 | 47 | 4267.4 |
| 20260506161817 | 12 | 302 | 9.7 | 11.3 | 0.00 | 0.46 | 0.46 | 48 | 4267.5 |
| 20260506161314 | 12 | 259 | 12.9 | 14.5 | 0.00 | 0.46 | 0.46 | 46 | 4267.5 |
| 20260506160812 | 12 | 332 | 9.7 | 11.3 | 0.00 | 0.46 | 0.46 | 48 | 4267.4 |
| 20260506160308 | 12 | 301 | 12.9 | 14.5 | 0.00 | 0.46 | 0.46 | 52 | 4267.3 |
| 20260506155807 | 12 | 343 | 17.7 | 20.9 | 0.00 | 0.46 | 0.46 | 52 | 4267.8 |
| 20260506155305 | 12 | 348 | 11.3 | 14.5 | 0.00 | 0.46 | 0.46 | 52 | 4267.7 |
| 20260506153416 | 11 | 338 | 16.1 | 17.7 | 0.00 | 0.46 | 0.46 | 46 | 4267.1 |
| 20260506152913 | 11 | 300 | 11.3 | 14.5 | 0.00 | 0.46 | 0.46 | 48 | 4267.2 |
| 20260506152410 | 12 | 339 | 11.3 | 16.1 | 0.00 | 0.46 | 0.46 | 53 | 4267.1 |
| 20260506151909 | 11 | 326 | 14.5 | 16.1 | 0.00 | 0.46 | 0.46 | 51 | 4267.1 |
| 20260506151405 | 11 | 349 | 11.3 | 17.7 | 0.00 | 0.46 | 0.46 | 47 | 4267.1 |
| 20260506150903 | 12 | 327 | 17.7 | 20.9 | 0.00 | 0.46 | 0.46 | 59 | 4267.2 |
| 20260506150359 | 11 | 340 | 11.3 | 16.1 | 0.00 | 0.46 | 0.46 | 53 | 4267.1 |
| 20260506145855 | 11 | 341 | 17.7 | 17.7 | 0.00 | 0.46 | 0.46 | 53 | 4266.9 |
| 20260506145352 | 11 | 326 | 16.1 | 17.7 | 0.00 | 0.46 | 0.46 | 54 | 4266.8 |
| 20260506144849 | 11 | 339 | 20.9 | 24.1 | 0.00 | 0.46 | 0.46 | 52 | 4266.7 |
| 20260506144346 | 11 | 337 | 12.9 | 12.9 | 0.00 | 0.46 | 0.46 | 56 | 4266.8 |
| 20260506143844 | 11 | 338 | 24.1 | 27.4 | 0.00 | 0.46 | 0.46 | 55 | 4266.4 |
| 20260506143341 | 11 | 313 | 12.9 | 14.5 | 0.00 | 0.46 | 0.46 | 56 | 4266.5 |
| 20260506142839 | 11 | 327 | 11.3 | 12.9 | 0.00 | 0.46 | 0.46 | 57 | 4266.5 |
| 20260506142337 | 11 | 334 | 17.7 | 20.9 | 0.00 | 0.46 | 0.46 | 56 | 4266.4 |
| 20260506141835 | 10 | 335 | 19.3 | 22.5 | 0.00 | 0.46 | 0.46 | 59 | 4266.4 |
| 20260506141333 | 10 | 348 | 17.7 | 22.5 | 0.00 | 0.46 | 0.46 | 62 | 4266.3 |
| 20260506140831 | 10 | 332 | 17.7 | 22.5 | 0.00 | 0.46 | 0.46 | 62 | 4266.5 |
| 20260506140327 | 10 | 343 | 14.5 | 16.1 | 0.00 | 0.46 | 0.46 | 60 | 4266.4 |
| 20260506135824 | 10 | 348 | 14.5 | 16.1 | 0.00 | 0.46 | 0.46 | 59 | 4266.3 |
| 20260506135321 | 10 | 324 | 17.7 | 20.9 | 0.00 | 0.46 | 0.46 | 62 | 4266.3 |
| 20260506134817 | 10 | 330 | 16.1 | 20.9 | 0.00 | 0.46 | 0.46 | 65 | 4266.5 |
| 20260506134314 | 10 | 344 | 16.1 | 17.7 | 0.00 | 0.46 | 0.46 | 67 | 4266.5 |
| 20260506133811 | 10 | 341 | 19.3 | 22.5 | 0.00 | 0.46 | 0.46 | 65 | 4266.4 |
| 20260506133307 | 10 | 331 | 19.3 | 20.9 | 0.00 | 0.46 | 0.46 | 66 | 4266.4 |
| 20260506132804 | 9 | 340 | 16.1 | 17.7 | 0.00 | 0.46 | 0.46 | 68 | 4266.1 |
| 20260506132301 | 9 | 330 | 14.5 | 16.1 | 0.00 | 0.46 | 0.46 | 69 | 4266.2 |
| 20260506131759 | 9 | 328 | 14.5 | 14.5 | 0.00 | 0.46 | 0.46 | 71 | 4265.8 |
| 20260506131255 | 9 | 329 | 14.5 | 16.1 | 0.00 | 0.46 | 0.46 | 72 | 4265.8 |
| 20260506130752 | 9 | 337 | 16.1 | 17.7 | 0.00 | 0.46 | 0.46 | 70 | 4265.9 |
| 20260506130249 | 8 | 322 | 16.1 | 16.1 | 0.00 | 0.46 | 0.46 | 73 | 4265.9 |
| 20260506125747 | 8 | 328 | 14.5 | 14.5 | 0.00 | 0.46 | 0.46 | 73 | 4265.7 |
| 20260506125245 | 8 | 322 | 12.9 | 14.5 | 0.00 | 0.46 | 0.46 | 74 | 4265.7 |
| 20260506124743 | 8 | 329 | 14.5 | 16.1 | 0.00 | 0.46 | 0.46 | 75 | 4265.5 |
| 20260506124240 | 8 | 300 | 8.0 | 9.7 | 0.00 | 0.46 | 0.46 | 78 | 4265.9 |
| 20260506123737 | 8 | 337 | 12.9 | 16.1 | 0.00 | 0.46 | 0.46 | 79 | 4265.7 |
| 20260506123237 | 8 | 292 | 8.0 | 11.3 | 0.00 | 0.46 | 0.46 | 79 | 4265.8 |
| 20260506122732 | 8 | 297 | 9.7 | 11.3 | 0.00 | 0.46 | 0.46 | 80 | 4265.7 |
| 20260506122230 | 7 | 294 | 9.7 | 11.3 | 0.00 | 0.46 | 0.46 | 80 | 4265.5 |
| 20260506121728 | 7 | 288 | 4.8 | 11.3 | 0.00 | 0.46 | 0.46 | 81 | 4265.4 |
| 20260506121225 | 7 | 295 | 1.6 | 3.2 | 0.00 | 0.46 | 0.46 | 82 | 4265.5 |
| 20260506120722 | 7 | 288 | 8.0 | 8.0 | 0.00 | 0.46 | 0.46 | 82 | 4265.3 |
| 20260506120219 | 7 | 283 | 1.6 | 3.2 | 0.00 | 0.46 | 0.46 | 82 | 4265.1 |
| 20260506115717 | 7 | 275 | 3.2 | 8.0 | 0.00 | 0.46 | 0.46 | 82 | 4265.3 |
| 20260506115215 | 7 | 277 | 0.0 | 0.0 | 0.00 | 0.46 | 0.46 | 82 | 4265.3 |
| 20260506114712 | 7 | 284 | 0.0 | 0.0 | 0.00 | 0.46 | 0.46 | 82 | 4265.2 |
| 20260506114210 | 7 | 269 | 0.0 | 1.6 | 0.00 | 0.46 | 0.46 | 83 | 4265.0 |
| 20260506113708 | 7 | 255 | 0.0 | 1.6 | 0.00 | 0.46 | 0.46 | 83 | 4265.2 |
| 20260506113205 | 7 | 271 | 0.0 | 0.0 | 0.00 | 0.46 | 0.46 | 83 | 4264.9 |
| 20260506112701 | 7 | 278 | 1.6 | 3.2 | 0.00 | 0.46 | 0.46 | 83 | 4265.0 |
| 20260506112159 | 6 | 247 | 0.0 | 0.0 | 0.00 | 0.46 | 0.46 | 83 | 4264.8 |
| 20260506111656 | 6 | 270 | 0.0 | 0.0 | 0.00 | 0.46 | 0.46 | 83 | 4264.9 |
| 20260506111154 | 6 | 252 | 0.0 | 0.0 | 0.00 | 0.46 | 0.46 | 83 | 4264.8 |
| 20260506110651 | 6 | 234 | 1.6 | 3.2 | 0.00 | 0.46 | 0.46 | 83 | 4264.8 |
| 20260506110149 | 6 | 267 | 1.6 | 9.7 | 0.00 | 0.46 | 0.46 | 83 | 4264.8 |
| 20260506105645 | 6 | 236 | 0.0 | 0.0 | 0.00 | 0.46 | 0.46 | 83 | 4264.5 |
| 20260506105142 | 6 | 284 | 6.4 | 9.7 | 0.00 | 0.46 | 0.46 | 83 | 4264.6 |
| 20260506104640 | 6 | 272 | 0.0 | 0.0 | 0.00 | 0.46 | 0.46 | 84 | 4264.3 |
| 20260506104138 | 6 | 252 | 4.8 | 4.8 | 0.00 | 0.46 | 0.46 | 84 | 4264.1 |
| 20260506103635 | 6 | 282 | 0.0 | 0.0 | 0.00 | 0.46 | 0.46 | 84 | 4264.0 |
| 20260506103131 | 6 | 293 | 0.0 | 0.0 | 0.00 | 0.46 | 0.46 | 84 | 4263.7 |
| 20260506102630 | 6 | 263 | 1.6 | 3.2 | 0.00 | 0.46 | 0.46 | 84 | 4263.9 |
| 20260506102127 | 6 | 300 | 0.0 | 0.0 | 0.00 | 0.46 | 0.46 | 84 | 4263.6 |
| 20260506101623 | 6 | 285 | 0.0 | 0.0 | 0.00 | 0.46 | 0.46 | 84 | 4263.7 |
| 20260506101120 | 6 | 298 | 0.0 | 1.6 | 0.00 | 0.46 | 0.46 | 84 | 4263.9 |
| 20260506100619 | 6 | 268 | 1.6 | 4.8 | 0.00 | 0.46 | 0.46 | 84 | 4263.9 |
| 20260506100116 | 6 | 270 | 1.6 | 3.2 | 0.00 | 0.46 | 0.46 | 84 | 4263.6 |
| 20260506095615 | 6 | 274 | 0.0 | 1.6 | 0.00 | 0.46 | 0.46 | 84 | 4263.9 |
| 20260506095111 | 6 | 256 | 0.0 | 0.0 | 0.00 | 0.46 | 0.46 | 84 | 4263.6 |
| 20260506094609 | 6 | 283 | 0.0 | 0.0 | 0.00 | 0.46 | 0.46 | 84 | 4263.9 |
| 20260506094106 | 6 | 244 | 0.0 | 0.0 | 0.00 | 0.46 | 0.46 | 84 | 4264.0 |
| 20260506093605 | 6 | 259 | 0.0 | 0.0 | 0.00 | 0.46 | 0.46 | 84 | 4263.9 |
| 20260506093102 | 6 | 285 | 0.0 | 0.0 | 0.00 | 0.46 | 0.46 | 84 | 4263.6 |
| 20260506092559 | 6 | 264 | 0.0 | 0.0 | 0.00 | 0.46 | 0.46 | 84 | 4263.9 |
| 20260506092056 | 6 | 280 | 0.0 | 0.0 | 0.00 | 0.46 | 0.46 | 84 | 4264.1 |
| 20260506091554 | 6 | 283 | 0.0 | 0.0 | 0.00 | 0.46 | 0.46 | 84 | 4264.0 |
| 20260506091051 | 6 | 253 | 0.0 | 0.0 | 0.00 | 0.46 | 0.46 | 84 | 4264.1 |
| 20260506090549 | 6 | 251 | 0.0 | 0.0 | 0.00 | 0.46 | 0.46 | 84 | 4264.2 |
| 20260506090045 | 6 | 247 | 0.0 | 0.0 | 0.00 | 0.46 | 0.46 | 85 | 4264.1 |
| 20260506085542 | 6 | 271 | 3.2 | 3.2 | 0.00 | 0.46 | 0.46 | 85 | 4264.4 |
| 20260506085038 | 6 | 285 | 0.0 | 0.0 | 0.00 | 0.46 | 0.46 | 85 | 4264.3 |
| 20260506084536 | 6 | 286 | 0.0 | 0.0 | 0.00 | 0.46 | 0.46 | 85 | 4263.6 |
| 20260506084031 | 6 | 286 | 0.0 | 0.0 | 0.00 | 0.46 | 0.46 | 84 | 4263.9 |
| 20260506083529 | 6 | 277 | 0.0 | 0.0 | 0.18 | 0.46 | 0.46 | 84 | 4264.2 |
| 20260506083026 | 6 | 286 | 0.0 | 0.0 | 0.18 | 0.46 | 0.46 | 84 | 4264.0 |
| 20260506082523 | 6 | 252 | 0.0 | 0.0 | 0.00 | 0.43 | 0.43 | 84 | 4264.2 |
| 20260506082019 | 6 | 278 | 0.0 | 0.0 | 0.00 | 0.43 | 0.43 | 84 | 4264.3 |
| 20260506081517 | 6 | 277 | 0.0 | 0.0 | 0.00 | 0.43 | 0.43 | 84 | 4264.2 |
| 20260506081014 | 6 | 268 | 0.0 | 0.0 | 0.00 | 0.43 | 0.43 | 84 | 4264.2 |
| 20260506080512 | 6 | 288 | 0.0 | 0.0 | 0.18 | 0.43 | 0.43 | 84 | 4263.7 |
| 20260506073455 | 6 | 312 | 0.0 | 0.0 | 0.30 | 0.38 | 0.38 | 84 | 4264.0 |
| 20260506072952 | 6 | 310 | 0.0 | 0.0 | 0.30 | 0.36 | 0.36 | 84 | 4263.6 |
| 20260506072449 | 7 | 309 | 0.0 | 0.0 | 0.30 | 0.33 | 0.33 | 84 | 4263.7 |
| 20260506071947 | 7 | 279 | 0.0 | 1.6 | 0.30 | 0.30 | 0.30 | 84 | 4264.0 |
| 20260506071445 | 7 | 285 | 0.0 | 1.6 | 0.18 | 0.28 | 0.28 | 84 | 4264.3 |
| 20260506070941 | 7 | 279 | 0.0 | 0.0 | 0.00 | 0.25 | 0.25 | 84 | 4264.3 |
| 20260506070439 | 7 | 292 | 0.0 | 0.0 | 0.13 | 0.25 | 0.25 | 84 | 4264.4 |
| 20260506062416 | 7 | 323 | 0.0 | 0.0 | 0.00 | 0.18 | 0.18 | 84 | 4263.6 |
| 20260506061912 | 7 | 321 | 0.0 | 0.0 | 0.18 | 0.18 | 0.18 | 84 | 4264.0 |
| 20260506061409 | 7 | 311 | 0.0 | 0.0 | 0.18 | 0.18 | 0.18 | 84 | 4264.6 |
| 20260506060907 | 7 | 317 | 0.0 | 0.0 | 0.00 | 0.15 | 0.15 | 84 | 4264.3 |
| 20260506060404 | 7 | 324 | 6.4 | 8.0 | 0.00 | 0.15 | 0.15 | 84 | 4264.3 |
| 20260506051336 | 7 | 316 | 0.0 | 1.6 | 0.18 | 0.10 | 0.10 | 84 | 4264.1 |
| 20260506050834 | 7 | 325 | 0.0 | 0.0 | 0.00 | 0.08 | 0.08 | 85 | 4264.4 |
| 20260506050331 | 7 | 298 | 4.8 | 11.3 | 0.13 | 0.08 | 0.08 | 85 | 4264.3 |
| 20260506044821 | 7 | 317 | 0.0 | 0.0 | 0.00 | 0.05 | 0.05 | 85 | 4264.1 |
| 20260506044320 | 7 | 333 | 0.0 | 0.0 | 0.18 | 0.05 | 0.05 | 85 | 4264.0 |
| 20260506043816 | 7 | 309 | 1.6 | 4.8 | 0.18 | 0.05 | 0.05 | 85 | 4264.0 |
| 20260506043314 | 8 | 274 | 0.0 | 0.0 | 0.18 | 0.05 | 0.05 | 85 | 4264.1 |
| 20260506042812 | 8 | 290 | 0.0 | 0.0 | 0.13 | 0.03 | 0.03 | 85 | 4263.7 |
| 20260506042311 | 8 | 280 | 0.0 | 0.0 | 0.13 | 0.03 | 0.03 | 85 | 4264.1 |
| 20260506041809 | 8 | 272 | 0.0 | 0.0 | 0.00 | 0.00 | 0.00 | 85 | 4263.7 |
| 20260506041305 | 8 | 262 | 0.0 | 0.0 | 0.00 | 0.00 | 0.00 | 85 | 4264.1 |
| 20260506040803 | 8 | 240 | 0.0 | 0.0 | 0.00 | 0.00 | 0.00 | 85 | 4263.6 |
| 20260506040300 | 8 | 262 | 0.0 | 0.0 | 0.18 | 0.00 | 0.00 | 86 | 4263.7 |
| 20260506035756 | 8 | 275 | 0.0 | 0.0 | 0.18 | 1.50 | 1.50 | 86 | 4264.0 |
| 20260506035253 | 8 | 271 | 0.0 | 0.0 | 0.00 | 1.47 | 1.47 | 86 | 4264.0 |
| 20260506034750 | 8 | 270 | 0.0 | 0.0 | 0.00 | 1.47 | 1.47 | 86 | 4264.2 |
| 20260506034248 | 8 | 262 | 0.0 | 0.0 | 0.00 | 1.47 | 1.47 | 86 | 4264.1 |
| 20260506033744 | 8 | 272 | 0.0 | 0.0 | 0.00 | 1.47 | 1.47 | 86 | 4263.9 |
| 20260506033242 | 8 | 257 | 0.0 | 0.0 | 0.00 | 1.47 | 1.47 | 86 | 4263.9 |
| 20260506032738 | 8 | 280 | 0.0 | 0.0 | 0.00 | 1.47 | 1.47 | 86 | 4264.1 |
| 20260506032235 | 8 | 279 | 0.0 | 0.0 | 0.00 | 1.47 | 1.47 | 86 | 4263.9 |
| 20260506031726 | 8 | 285 | 0.0 | 0.0 | 0.00 | 1.47 | 1.47 | 86 | 4264.1 |
| 20260506031224 | 8 | 284 | 0.0 | 0.0 | 0.13 | 1.47 | 1.47 | 86 | 4264.2 |
| 20260506030722 | 8 | 265 | 0.0 | 0.0 | 0.13 | 1.47 | 1.47 | 86 | 4264.2 |
| 20260506030219 | 8 | 283 | 0.0 | 0.0 | 0.00 | 1.45 | 1.45 | 86 | 4264.1 |
| 20260506025716 | 8 | 291 | 0.0 | 0.0 | 0.00 | 1.45 | 1.45 | 86 | 4264.3 |
| 20260506025212 | 8 | 293 | 0.0 | 0.0 | 0.18 | 1.45 | 1.45 | 86 | 4264.2 |
| 20260506024709 | 8 | 292 | 0.0 | 0.0 | 0.18 | 1.45 | 1.45 | 86 | 4264.1 |
| 20260506024206 | 8 | 286 | 0.0 | 0.0 | 0.00 | 1.42 | 1.42 | 86 | 4264.4 |
| 20260506023702 | 8 | 280 | 0.0 | 0.0 | 0.13 | 1.42 | 1.42 | 86 | 4264.1 |
| 20260506023200 | 8 | 291 | 0.0 | 0.0 | 0.13 | 1.42 | 1.42 | 86 | 4264.2 |
| 20260506022656 | 8 | 293 | 0.0 | 0.0 | 0.00 | 1.40 | 1.40 | 86 | 4264.0 |
| 20260506022154 | 8 | 292 | 0.0 | 0.0 | 0.18 | 1.40 | 1.40 | 85 | 4264.0 |
| 20260506021652 | 8 | 283 | 0.0 | 0.0 | 0.18 | 1.40 | 1.40 | 85 | 4264.1 |
| 20260506021149 | 8 | 281 | 0.0 | 0.0 | 0.00 | 1.37 | 1.37 | 85 | 4264.1 |
| 20260506020646 | 8 | 276 | 0.0 | 0.0 | 0.13 | 1.37 | 1.37 | 85 | 4264.3 |
| 20260506020143 | 8 | 250 | 0.0 | 0.0 | 0.30 | 1.37 | 1.37 | 85 | 4264.1 |
| 20260506015640 | 8 | 260 | 0.0 | 0.0 | 0.18 | 1.35 | 1.35 | 85 | 4264.2 |
| 20260506015137 | 8 | 280 | 0.0 | 0.0 | 0.13 | 1.32 | 1.32 | 85 | 4264.1 |
| 20260506014635 | 8 | 229 | 0.0 | 0.0 | 0.13 | 1.32 | 1.32 | 85 | 4263.7 |
| 20260506014130 | 8 | 259 | 0.0 | 0.0 | 0.18 | 1.30 | 1.30 | 85 | 4264.1 |
| 20260506013629 | 8 | 259 | 0.0 | 0.0 | 0.36 | 1.30 | 1.30 | 85 | 4263.9 |
| 20260506013125 | 8 | 272 | 0.0 | 0.0 | 0.18 | 1.27 | 1.27 | 85 | 4263.9 |
| 20260506012622 | 8 | 270 | 0.0 | 0.0 | 0.30 | 1.27 | 1.27 | 85 | 4263.6 |
| 20260506012118 | 8 | 280 | 0.0 | 0.0 | 0.30 | 1.24 | 1.24 | 85 | 4263.5 |
| 20260506011616 | 8 | 280 | 4.8 | 4.8 | 0.18 | 1.22 | 1.22 | 85 | 4263.6 |
| 20260506011112 | 8 | 265 | 0.0 | 0.0 | 0.13 | 1.19 | 1.19 | 85 | 4263.6 |
| 20260506010612 | 8 | 281 | 0.0 | 0.0 | 0.13 | 1.19 | 1.19 | 85 | 4263.7 |
| 20260506010108 | 8 | 262 | 0.0 | 0.0 | 0.00 | 1.17 | 1.17 | 85 | 4263.6 |
| 20260506005605 | 8 | 264 | 0.0 | 0.0 | 0.18 | 1.17 | 1.17 | 85 | 4263.4 |
| 20260506005101 | 8 | 274 | 0.0 | 0.0 | 0.18 | 1.17 | 1.17 | 85 | 4263.4 |
| 20260506004558 | 8 | 244 | 0.0 | 0.0 | 0.00 | 1.14 | 1.14 | 85 | 4263.5 |
| 20260506004055 | 8 | 267 | 0.0 | 0.0 | 0.13 | 1.14 | 1.14 | 85 | 4263.5 |
| 20260506003551 | 8 | 281 | 0.0 | 0.0 | 0.13 | 1.14 | 1.14 | 85 | 4263.2 |
| 20260506003048 | 8 | 273 | 0.0 | 0.0 | 0.00 | 1.12 | 1.12 | 84 | 4263.3 |
| 20260506002543 | 8 | 283 | 0.0 | 0.0 | 0.18 | 1.12 | 1.12 | 84 | 4263.3 |
| 20260506002040 | 8 | 279 | 0.0 | 0.0 | 0.30 | 1.12 | 1.12 | 84 | 4263.4 |
| 20260506001536 | 8 | 284 | 0.0 | 0.0 | 0.30 | 1.09 | 1.09 | 84 | 4263.2 |
| 20260506001033 | 8 | 288 | 0.0 | 0.0 | 0.30 | 1.07 | 1.07 | 84 | 4263.4 |
| 20260506000531 | 8 | 283 | 0.0 | 0.0 | 0.48 | 1.04 | 1.04 | 84 | 4263.3 |
| 20260506000028 | 8 | 289 | 0.0 | 0.0 | 0.48 | 1.02 | 1.02 | 84 | 4263.4 |
| 20260505235526 | 8 | 285 | 0.0 | 0.0 | 0.30 | 0.97 | 0.97 | 84 | 4263.5 |
| 20260505235022 | 8 | 277 | 0.0 | 0.0 | 0.30 | 0.94 | 0.94 | 84 | 4263.3 |
| 20260505234520 | 8 | 275 | 0.0 | 1.6 | 0.43 | 0.91 | 0.91 | 83 | 4263.3 |
| 20260505234016 | 9 | 289 | 0.0 | 0.0 | 0.48 | 0.89 | 0.89 | 83 | 4263.2 |
| 20260505233514 | 9 | 252 | 0.0 | 0.0 | 0.18 | 0.84 | 0.84 | 83 | 4263.2 |
| 20260505233011 | 9 | 278 | 0.0 | 0.0 | 0.13 | 0.81 | 0.81 | 83 | 4263.4 |
| 20260505232509 | 9 | 280 | 0.0 | 0.0 | 0.30 | 0.81 | 0.81 | 83 | 4263.2 |
| 20260505232006 | 9 | 279 | 0.0 | 0.0 | 0.18 | 0.79 | 0.79 | 83 | 4263.3 |
| 20260505231503 | 9 | 263 | 0.0 | 0.0 | 0.30 | 0.79 | 0.79 | 83 | 4263.4 |
| 20260505231002 | 9 | 283 | 0.0 | 0.0 | 0.13 | 0.76 | 0.76 | 82 | 4263.3 |
| 20260505230459 | 9 | 284 | 0.0 | 0.0 | 0.00 | 0.74 | 0.74 | 82 | 4263.2 |
| 20260505225955 | 9 | 292 | 0.0 | 0.0 | 0.00 | 0.74 | 0.74 | 82 | 4263.2 |
| 20260505225452 | 9 | 297 | 0.0 | 0.0 | 0.00 | 0.74 | 0.74 | 82 | 4263.0 |
| 20260505224948 | 9 | 289 | 0.0 | 0.0 | 0.00 | 0.74 | 0.74 | 82 | 4263.2 |
| 20260505224445 | 9 | 313 | 0.0 | 0.0 | 0.00 | 0.74 | 0.74 | 82 | 4263.0 |
| 20260505223942 | 9 | 314 | 0.0 | 0.0 | 0.00 | 0.74 | 0.74 | 82 | 4262.8 |
| 20260505223439 | 9 | 317 | 0.0 | 1.6 | 0.00 | 0.74 | 0.74 | 82 | 4262.9 |
| 20260505222935 | 10 | 322 | 0.0 | 0.0 | 0.00 | 0.74 | 0.74 | 82 | 4263.1 |
| 20260505222432 | 10 | 324 | 0.0 | 0.0 | 0.00 | 0.74 | 0.74 | 83 | 4263.1 |
| 20260505221928 | 10 | 320 | 6.4 | 8.0 | 0.00 | 0.74 | 0.74 | 83 | 4263.0 |
| 20260505221425 | 9 | 322 | 0.0 | 0.0 | 0.00 | 0.74 | 0.74 | 83 | 4263.2 |
| 20260505220922 | 9 | 337 | 0.0 | 0.0 | 0.00 | 0.74 | 0.74 | 83 | 4262.9 |
| 20260505220419 | 9 | 325 | 1.6 | 3.2 | 0.18 | 0.74 | 0.74 | 83 | 4263.2 |
| 20260505215917 | 9 | 318 | 0.0 | 0.0 | 0.18 | 0.74 | 0.74 | 83 | 4262.9 |
| 20260505215415 | 10 | 325 | 8.0 | 9.7 | 0.00 | 0.71 | 0.71 | 83 | 4263.0 |
| 20260505214912 | 10 | 322 | 11.3 | 12.9 | 0.13 | 0.71 | 0.71 | 83 | 4262.8 |
| 20260505214410 | 9 | 335 | 9.7 | 12.9 | 0.30 | 0.71 | 0.71 | 83 | 4262.7 |
| 20260505213907 | 9 | 305 | 0.0 | 0.0 | 0.36 | 0.69 | 0.69 | 83 | 4263.1 |
| 20260505213405 | 10 | 317 | 0.0 | 0.0 | 0.18 | 0.66 | 0.66 | 83 | 4262.8 |
| 20260505212900 | 10 | 331 | 8.0 | 9.7 | 0.13 | 0.64 | 0.64 | 83 | 4262.9 |
| 20260505212358 | 9 | 326 | 12.9 | 14.5 | 0.13 | 0.64 | 0.64 | 83 | 4262.7 |
| 20260505211854 | 10 | 334 | 11.3 | 12.9 | 0.18 | 0.61 | 0.61 | 83 | 4262.8 |
| 20260505211351 | 10 | 331 | 14.5 | 14.5 | 0.18 | 0.61 | 0.61 | 83 | 4262.7 |
| 20260505210848 | 9 | 320 | 14.5 | 14.5 | 0.18 | 0.61 | 0.61 | 83 | 4262.8 |
| 20260505210345 | 10 | 329 | 16.1 | 16.1 | 0.13 | 0.58 | 0.58 | 83 | 4262.8 |
| 20260505205841 | 10 | 330 | 16.1 | 17.7 | 0.18 | 0.56 | 0.56 | 83 | 4263.0 |
| 20260505205340 | 10 | 336 | 11.3 | 12.9 | 0.18 | 0.56 | 0.56 | 83 | 4262.8 |
| 20260505204836 | 10 | 328 | 11.3 | 12.9 | 0.13 | 0.53 | 0.53 | 83 | 4262.8 |
| 20260505204334 | 10 | 319 | 11.3 | 12.9 | 0.30 | 0.53 | 0.53 | 83 | 4262.8 |
| 20260505203831 | 10 | 331 | 14.5 | 14.5 | 0.30 | 0.51 | 0.51 | 83 | 4262.7 |
| 20260505203328 | 10 | 327 | 24.1 | 32.2 | 0.30 | 0.48 | 0.48 | 82 | 4262.8 |
| 20260505202824 | 10 | 337 | 12.9 | 14.5 | 0.18 | 0.46 | 0.46 | 82 | 4262.7 |
| 20260505202320 | 10 | 331 | 9.7 | 12.9 | 0.30 | 0.46 | 0.46 | 82 | 4262.6 |
| 20260505201817 | 10 | 315 | 16.1 | 17.7 | 0.13 | 0.43 | 0.43 | 82 | 4262.8 |
| 20260505201315 | 10 | 324 | 8.0 | 9.7 | 0.18 | 0.41 | 0.41 | 82 | 4262.8 |
| 20260505200813 | 10 | 325 | 14.5 | 16.1 | 0.18 | 0.41 | 0.41 | 82 | 4262.8 |
| 20260505200309 | 11 | 331 | 11.3 | 12.9 | 0.13 | 0.38 | 0.38 | 82 | 4262.9 |
| 20260505195805 | 10 | 311 | 8.0 | 9.7 | 0.13 | 0.38 | 0.38 | 82 | 4263.2 |
| 20260505195305 | 11 | 285 | 11.3 | 14.5 | 0.00 | 0.36 | 0.36 | 82 | 4263.0 |
| 20260505194800 | 11 | 290 | 6.4 | 8.0 | 0.00 | 0.36 | 0.36 | 83 | 4262.8 |
| 20260505194257 | 11 | 264 | 4.8 | 8.0 | 0.00 | 0.36 | 0.36 | 82 | 4263.0 |
| 20260505193756 | 11 | 249 | 11.3 | 14.5 | 0.18 | 0.36 | 0.36 | 82 | 4263.2 |
| 20260505193255 | 11 | 265 | 6.4 | 8.0 | 0.18 | 0.36 | 0.36 | 83 | 4263.4 |
| 20260505192753 | 11 | 254 | 8.0 | 9.7 | 0.00 | 0.33 | 0.33 | 83 | 4263.2 |
| 20260505192250 | 11 | 230 | 8.0 | 9.7 | 0.00 | 0.33 | 0.33 | 83 | 4263.2 |
| 20260505191748 | 11 | 238 | 6.4 | 9.7 | 0.18 | 0.33 | 0.33 | 83 | 4263.4 |
| 20260505191247 | 10 | 254 | 8.0 | 11.3 | 0.18 | 0.33 | 0.33 | 82 | 4263.1 |
| 20260505190742 | 10 | 242 | 11.3 | 12.9 | 0.13 | 0.30 | 0.30 | 82 | 4263.4 |
| 20260505190237 | 10 | 231 | 1.6 | 8.0 | 0.13 | 0.30 | 0.30 | 82 | 4263.4 |
| 20260505185734 | 10 | 247 | 6.4 | 9.7 | 0.00 | 0.28 | 0.28 | 82 | 4263.5 |
| 20260505185231 | 11 | 231 | 12.9 | 14.5 | 0.18 | 0.28 | 0.28 | 82 | 4263.5 |
| 20260505184727 | 11 | 272 | 9.7 | 11.3 | 0.18 | 0.28 | 0.28 | 83 | 4263.5 |
| 20260505184225 | 11 | 253 | 0.0 | 3.2 | 0.13 | 0.25 | 0.25 | 83 | 4263.4 |
| 20260505183721 | 11 | 296 | 4.8 | 8.0 | 0.30 | 0.25 | 0.25 | 82 | 4262.7 |
| 20260505183219 | 11 | 255 | 9.7 | 11.3 | 0.30 | 0.23 | 0.23 | 82 | 4263.2 |
| 20260505182714 | 11 | 252 | 4.8 | 4.8 | 0.30 | 0.20 | 0.20 | 82 | 4262.9 |
| 20260505182212 | 11 | 242 | 4.8 | 4.8 | 0.30 | 0.18 | 0.18 | 81 | 4263.2 |
| 20260505181708 | 11 | 251 | 9.7 | 11.3 | 0.30 | 0.15 | 0.15 | 80 | 4263.0 |
| 20260505181206 | 11 | 230 | 6.4 | 11.3 | 0.18 | 0.13 | 0.13 | 80 | 4262.9 |
| 20260505180702 | 11 | 247 | 9.7 | 11.3 | 0.13 | 0.10 | 0.10 | 80 | 4262.9 |
| 20260505180159 | 11 | 277 | 4.8 | 8.0 | 0.30 | 0.10 | 0.10 | 79 | 4262.7 |
| 20260505175655 | 12 | 260 | 4.8 | 4.8 | 0.18 | 0.08 | 0.08 | 78 | 4262.7 |
| 20260505175151 | 12 | 258 | 3.2 | 3.2 | 0.00 | 0.05 | 0.05 | 77 | 4262.8 |
| 20260505174648 | 12 | 263 | 6.4 | 8.0 | 0.13 | 0.05 | 0.05 | 76 | 4262.5 |
| 20260505174144 | 12 | 244 | 4.8 | 8.0 | 0.13 | 0.05 | 0.05 | 75 | 4262.5 |
| 20260505173641 | 12 | 266 | 4.8 | 8.0 | 0.00 | 0.03 | 0.03 | 75 | 4262.3 |
| 20260505173138 | 12 | 230 | 12.9 | 14.5 | 0.00 | 0.03 | 0.03 | 72 | 4262.6 |
| 20260505172635 | 13 | 264 | 6.4 | 8.0 | 0.18 | 0.03 | 0.03 | 75 | 4262.7 |
| 20260505172132 | 13 | 274 | 4.8 | 4.8 | 0.18 | 0.03 | 0.03 | 74 | 4262.5 |
| 20260505171626 | 13 | 275 | 4.8 | 4.8 | 0.00 | 0.00 | 0.00 | 71 | 4262.5 |
| 20260505171124 | 13 | 259 | 4.8 | 8.0 | 0.00 | 0.00 | 0.00 | 70 | 4262.5 |
| 20260505170621 | 13 | 256 | 6.4 | 8.0 | 0.00 | 0.00 | 0.00 | 68 | 4262.6 |
| 20260505170117 | 14 | 269 | 11.3 | 12.9 | 0.00 | 0.00 | 0.00 | 67 | 4262.9 |